Hourly Data Report for May 18, 2021

CARIBOU POINT (AUT)
NOVA SCOTIA
Current Station Operator: ECCC - MSC

45°46'00.000" N
62°41'00.000" W
2.40 m
8200774
71415
WBK

Download Data

Hourly Data (May 2021)
Hourly Data Report for May 18, 2021
TIME
LST
Temp Definition
°C
Dew Point Definition
°C
Rel Hum Definition
%
Precip. Amount Definition
mm

Wind Dir Definition
10's deg

Wind Spd Definition
km/h
Visibility Definition
km
Stn Press Definition
kPa
Hmdx Definition


Wind Chill Definition


Weather Definition


00:00 9.6 8.5 93 0.0 22 12   102.24     LegendNANA
01:00 9.0 8.0 93 0.0 24 5   102.22     LegendNANA
02:00 8.1 7.3 95 0.0 21 9   102.17     LegendNANA
03:00 7.9 7.2 95 0.0 21 9   102.16     LegendNANA
04:00 7.9 7.1 95 0.0 22 10   102.16     LegendNANA
05:00 7.8 6.9 94 0.0 22 12   102.15     LegendNANA
06:00 9.0 7.3 89 0.0 22 10   102.12     LegendNANA
07:00 11.1 8.6 85 0.0 20 8   102.08     LegendNANA
08:00 14.1 9.3 73 0.0 22 7   102.05     LegendNANA
09:00 13.9 9.3 74 0.0 15 5   101.97     LegendNANA
10:00 11.1 8.1 81 0.0 36 16   102.02     LegendNANA
11:00 9.4 7.7 89 0.0 4 16   101.99     LegendNANA
12:00 10.2 8.1 87 0.3 15 22   101.89     LegendNANA
13:00 11.3 8.4 82 0.0 13 24   101.76     LegendNANA
14:00 14.7 9.9 73 0.0 13 6   101.68     LegendNANA
15:00 13.9 7.4 65 0.0 31 21   101.66     LegendNANA
16:00 16.4 8.8 61 0.0 26 9   101.67     LegendNANA
17:00 12.3 10.9 91 1.4 15 11   101.66     LegendNANA
18:00 12.5 11.4 94 0.0 16 14   101.63     LegendNANA
19:00 12.3 11.1 92 0.0 16 9   101.65     LegendNANA
20:00 10.9 10.2 96 0.5 33 8   101.63     LegendNANA
21:00 11.1 10.2 94 0.3 27 12   101.72     LegendNANA
22:00 9.4 8.4 93 0.0 29 19   101.75     LegendNANA
23:00 9.5 8.6 94 0.0 29 16   101.75     LegendNANA

Notes on Data Quality.

Legend

  • E = Estimated
  • M = Missing
  • NA = Not Available*
  • [empty] = Indicates an unobserved value
Date modified: